Meteo Giornale » Osservazioni meteo Stati Uniti (USA) » Goldsboro-Wayne

ore: 20:55 - Osservazioni Meteo Goldsboro-Wayne
Lat. 35° 28' N Lon. 77° 58' W Alt. 41 metri s.l.m.

sereno

26 °C

Sereno

Temp. 24 Ore

19 °C

34 °C

Nord

0 Km/h

Dew point 22 °C

Umidità 78 %

Visibilità  10 Km

Il sole sorge alle ore 06:43

Il sole tramonta alle ore 19:40

Data e Ora Cielo e Fenomeni T °C DP °C Um. % Pres. hPa Vis. km Vento km/h
Oggi h: 20:55 sereno Sereno 26 22 78 1018 10 N 0
Oggi h: 20:35 nuvoloso Nuvoloso 26 22 78 1018 10 N 0
Oggi h: 20:15 nuvoloso Nuvoloso 27 22 74 1018 10 N 0
Oggi h: 19:55 sereno Sereno 29 22 66 1018 10 N 0
Oggi h: 19:35 sereno Sereno 29 22 66 1018 10 N 0
Oggi h: 19:15 sereno Sereno 31 21 55 1018 10 N 0
Oggi h: 18:55 sereno Sereno 32 20 49 1018 10 N 5.5
Oggi h: 18:35 sereno Sereno 32 20 49 1017 10 N 0
Oggi h: 18:15 nuvoloso Nuvoloso 33 20 46 1017 10 N 5.5
Oggi h: 17:55 sereno Sereno 34 19 41 1018 10 N 0
Oggi h: 17:35 sereno Sereno 34 20 43 1017 10 E/NE 7.4
Oggi h: 17:15 sereno Sereno 34 19 41 1018 10 N 0
Oggi h: 16:55 sereno Sereno 33 20 46 1018 10 N 5.5
Oggi h: 16:35 sereno Sereno 33 20 46 1018 10 N 0
Oggi h: 16:15 sereno Sereno 33 20 46 1018 10 N 5.5
Oggi h: 15:55 sereno Sereno 34 20 43 1018 10 N/NE 7.4
Oggi h: 15:35 sereno Sereno 34 19 41 1018 10 E/NE 7.4
Oggi h: 15:15 sereno Sereno 33 20 46 1019 10 N 7.4
Oggi h: 14:55 sereno Sereno 33 20 46 1019 10 N 0
Oggi h: 14:35 nuvoloso Nuvoloso 33 21 49 1019 10 E/NE 9.3
Oggi h: 14:15 nuvoloso Nuvoloso 32 22 55 1019 10 S 7.4
Oggi h: 13:55 sereno Sereno 32 21 52 1019 10 N/NE 7.4
Oggi h: 13:35 sereno Sereno 32 21 52 1019 10 N 0
Oggi h: 13:15 sereno Sereno 32 21 52 1019 10 N/NE 7.4
Oggi h: 12:55 sereno Sereno 31 21 55 1019 10 N 0
Oggi h: 12:35 sereno Sereno 31 22 58 1020 10 NE 7.4
Oggi h: 12:15 sereno Sereno 31 22 58 1020 10 N 0
Oggi h: 11:55 sereno Sereno 30 22 62 1020 10 N 5.5
Oggi h: 11:35 sereno Sereno 30 22 62 1020 10 N 0
Oggi h: 11:15 sereno Sereno 29 22 66 1020 10 N 0
Oggi h: 10:55 sereno Sereno 29 21 62 1020 10 N 9.3
Oggi h: 10:35 sereno Sereno 29 22 66 1020 10 N 9.3
Oggi h: 10:15 sereno Sereno 28 22 69 1020 10 N 0
Oggi h: 09:55 sereno Sereno 28 23 74 1020 10 NO 7.4
Oggi h: 09:35 sereno Sereno 27 23 78 1020 10 NO 9.3
Oggi h: 09:15 sereno Sereno 26 24 88 1020 10 N 5.5
Oggi h: 08:55 sereno Sereno 24 24 100 1020 10 N/NO 7.4
Oggi h: 08:35 sereno Sereno 23 23 100 1020 10 N 0
Oggi h: 08:15 sereno Sereno 23 23 100 1020 10 N 5.5
Oggi h: 07:55 foschia Foschia 21 21 100 1020 2 N 0
Oggi h: 07:35 nebbia Nebbia 20 20 100 1020 2 N 0
Oggi h: 07:15 nebbia Nebbia 19 19 100 1020 0 N 0
Oggi h: 06:55 nebbia Nebbia 19 19 100 1020 0 N 0
Oggi h: 06:35 nebbia Nebbia 20 20 100 1019 2 N 0
Oggi h: 06:15 nebbia Nebbia 20 20 100 1019 2 N 0
Oggi h: 05:55 nebbia Nebbia 20 20 100 1019 2 N 0
Oggi h: 05:35 nebbia Nebbia 20 20 100 1019 0 N 0
Oggi h: 05:15 nebbia Nebbia 20 20 100 1019 2 N 0
Oggi h: 04:55 nebbia Nebbia 20 20 100 1019 2 N 0
Oggi h: 04:35 foschia Foschia 21 21 100 1019 5 N 0
Oggi h: 04:15 nebbia Nebbia 21 21 100 1020 2 N 0
Oggi h: 03:55 nebbia Nebbia 21 21 100 1020 2 N 0
Oggi h: 03:35 sereno Sereno 21 21 100 1019 10 N 0
Oggi h: 03:15 foschia Foschia 21 21 100 1019 2 N 5.5
Oggi h: 02:55 sereno Sereno 22 22 100 1019 11 N 0
Oggi h: 02:35 sereno Sereno 22 22 100 1019 10 N 0
Oggi h: 02:15 sereno Sereno 22 22 100 1020 10 O/SO 7.4
Oggi h: 01:55 sereno Sereno 22 22 100 1020 10 O/SO 7.4
Oggi h: 01:35 sereno Sereno 22 22 100 1020 10 N 5.5
Oggi h: 01:15 sereno Sereno 22 22 100 1020 10 N 0
Oggi h: 00:55 sereno Sereno 22 22 100 1020 10 N 0
Oggi h: 00:35 sereno Sereno 22 22 100 1020 10 N 0
Oggi h: 00:15 sereno Sereno 23 23 100 1020 10 N 0
Ieri h: 23:55 sereno Sereno 23 23 100 1020 10 N 0
Ieri h: 23:35 sereno Sereno 23 23 100 1020 10 N 0
Ieri h: 23:15 sereno Sereno 23 23 100 1020 10 N 5.5
Ieri h: 22:55 sereno Sereno 23 23 100 1020 10 N 5.5
Ieri h: 22:35 sereno Sereno 23 23 100 1020 10 N 0
Ieri h: 22:15 sereno Sereno 24 23 94 1020 10 N 5.5
Ieri h: 21:55 sereno Sereno 24 23 94 1020 10 N 0
Ieri h: 21:35 sereno Sereno 24 23 94 1020 10 N 0